Location: Moscow
(55.7500°N, 37.5830°E)
Time: 16:00:24
(UTC+03:00)

Transit 2A - Pass Details

Date: 06 December 2021
Orbit: 591 x 967 km, 66.7° (Epoch: 17 January)

Event Time Altitude Azimuth Distance (km) Brightness Sun altitude
Rises 02:16:21 0° 248° (WSW) 3,437 - -50.5°
Reaches altitude 10° 02:18:50 10° 254° (WSW) 2,552 - -50.2°
Maximum altitude 02:24:39 49° 329° (NNW) 1,196 - -49.6°
Exits shadow 02:30:19 12° 42° (NE) 2,531 9.1 -49.0°
Drops below altitude 10° 02:30:50 10° 44° (NE) 2,708 9.3 -49.0°
Sets 02:33:33 0° 50° (NE) 3,666 10.2 -48.7°
